Home > Weather > Camrose > Past weeks

Flag for Canada Weather for the Past 2 Weeks in Camrose, Alberta, Canada

Now
46 °F

Partly sunny.


Feels Like: 43 °F
Forecast: 55 / 81 °F
Wind: 7 mph from Southwest

Location: Edmonton International

Current Time: May 4, 2016 at 8:11:04 AM

Latest Report: May 4, 2016 at 7:00 AM


Visibility: 15 mi

Pressure: 29.82 "Hg (27.24 "Hg at 744m altitude)

Humidity: 57%

Dew Point: 32 °F

Location of CamroseLocation

Historic Weather in Camrose — Graph

°F

Camrose Temperature Yesterday

Maximum temperature yesterday: 84 °F (at 3:00 PM)
Minimum temperature yesterday: 52 °F (at 5:00 AM)
Average temperature yesterday: 69 °F

High & Low Weather Summary for the Past Weeks

 TemperatureHumidityPressure
High84 °F (May 3, 3:00 PM)100% (Apr 23, 11:00 PM)30.29 "Hg (Apr 23, 11:00 PM)
Low30 °F (Apr 21, 6:00 AM)13% (May 3, 3:00 PM)29.81 "Hg (May 3, 8:00 PM)
Average50 °F55%30.06 "Hg
* Reported Apr 19 7:00 AM — May 4 7:00 AM, Camrose, Weather by CustomWeather, © 2016

Note: Actual official high and low records may vary slightly from our data, if they occured in-between our weather recording intervals... More about our weather records

Advertising

Camrose Weather History for the Previous 24 Hours

Scroll right to see more
 ConditionsComfort  
Time TempWeatherWind HumidityBarometerVisibility
7:00 AM
Wed, May 4
46 °FPartly sunny.7 mph57%29.82 "Hg15 mi
6:00 AM48 °FPassing clouds.5 mph50%29.82 "Hg15 mi
5:00 AM48 °FPassing clouds.7 mph50%29.82 "Hg15 mi
4:00 AM46 °FPassing clouds.9 mph53%29.83 "Hg15 mi
3:00 AM52 °FPassing clouds.5 mph47%29.83 "Hg15 mi
2:00 AM54 °FClear.6 mph44%29.83 "Hg15 mi
1:00 AM57 °FPassing clouds.7 mph39%29.82 "Hg15 mi
12:00 AM55 °FPassing clouds.3 mph41%29.81 "Hg15 mi
11:00 PM
Tue, May 3
57 °FPassing clouds.2 mph39%29.81 "Hg15 mi
10:00 PM61 °FPassing clouds.8 mph31%29.82 "Hg15 mi
9:00 PM70 °FPassing clouds.6 mph23%29.82 "Hg15 mi
8:00 PM81 °FPassing clouds.7 mph15%29.81 "Hg15 mi
7:00 PM82 °FPassing clouds.6 mph15%29.83 "Hg15 mi
6:00 PM84 °FPassing clouds.8 mph14%29.85 "Hg15 mi
5:00 PM84 °FPassing clouds.7 mph14%29.87 "Hg15 mi
4:00 PM84 °FPassing clouds.9 mph13%29.89 "Hg15 mi
3:00 PM84 °FPassing clouds.16 mph13%29.90 "Hg15 mi
2:00 PM82 °FPassing clouds.12 mph14%29.91 "Hg15 mi
1:00 PM81 °FPassing clouds.9 mph17%29.93 "Hg15 mi
12:00 PM77 °FPassing clouds.6 mph21%29.95 "Hg15 mi
11:00 AM75 °FPassing clouds.13 mph21%29.96 "Hg15 mi
10:00 AM72 °FScattered clouds.8 mph23%29.97 "Hg15 mi
9:00 AM66 °FBroken clouds.9 mph28%29.97 "Hg15 mi
8:00 AM61 °FPartly sunny.7 mph39%29.96 "Hg15 mi
Weather by CustomWeather, © 2016

See weather overviewHow to use our weather pages